Regional Weather Roundup
Issued by NWS

Home | Current Version | Previous Version | Text Only | Print | Product List | Glossary On
Versions: 1 2 3 4 5 6 7 8 9 10 11 12 13 14 15 16 17 18 19 20 21 22 23 24 25 26 27 28 29 30 31 32 33 34 35 36 37 38 39 40 41 42 43 44 45 46 47 48 49 50
000
ASUS43 KLOT 251504
RWRIL

ILLINOIS REGIONAL WEATHER ROUNDUP
NATIONAL WEATHER SERVICE CHICAGO/ROMEOVILLE IL
1000 AM CDT FRI MAY 25 2018

NOTE: "FAIR" INDICATES FEW OR NO CLOUDS BELOW 12,000 FEET WITH NO
SIGNIFICANT WEATHER AND/OR OBSTRUCTIONS TO VISIBILITY.

* THESE STATIONS ARE NOT UNDER NWS QUALITY CONTROL. THEY ALSO MAY NOT
  REPORT WEATHER SUCH AS PRECIPITATION OR FOG.

ILZ001-002-007-009-015-016-024-251600-
NORTHWEST ILLINOIS

CITY           SKY/WX    TMP DP  RH WIND       PRES   REMARKS
MOLINE         FAIR      83  66  56 S10       29.89F HX  85
STERLING*        N/A    N/A N/A N/A MISG        N/A
$$

ILZ003-004-008-010-011-017-018-251600-
NORTH CENTRAL ILLINOIS

CITY           SKY/WX    TMP DP  RH WIND       PRES   REMARKS
ROCKFORD       FAIR      81  63  54 SW12      29.93F HX  82
FREEPORT*      FAIR      80  64  57 SW14      29.94F HX  81
$$

ILZ005-006-012>014-019>023-251600-
NORTHEAST ILLINOIS

CITY           SKY/WX    TMP DP  RH WIND       PRES   REMARKS
CHICAGO-OHARE  FAIR      81  58  45 SW12      29.92F HX  81
CHICAGO-MIDWAY FAIR      82  60  47 SW9       29.93F HX  82
AURORA         FAIR      81  63  54 SW8       29.94F HX  82
LANSING*       FAIR      80  62  54 SW9       29.95F HX  82
WAUKEGAN       FAIR      81  63  54 SW12      29.91F HX  82
DUPAGE AIRPORT FAIR      80  62  54 SW10      29.93F HX  81
WHEELING       FAIR      82  61  48 SW9       29.94F HX  83
NORTHERLY ISL    N/A     80  54  40 W8          N/A  HX  80
$$

LMZ740>746-251600-
SOUTHERN LAKE MICHIGAN

STATION/POSITION SKY/WX   TEMP    WIND        PRES    VSBY  WAVE
                          AIR SEA DIR/SP/G                  HT/PER
                          (F)     (DEG/KT/KT) (MB)    (MI)  (FT/S)
SOUTHERN BUOY              48 39  190/ 10/ 10 1014.0          0
WILMETTE HARBOR            68 55  220/  6/  8   N/A           1
HARRISON CRIB              78     230/  6/  8   N/A
BURNHAM HARBOR             80     220/  5/ 11   N/A
CALUMET HARBOR             79     220/  6/ 11 1013.6F
BURNS HARBOR               76     220/ 10/ 15 1014.9S
MICHIGAN CITY              78     190/ 10/ 11   N/A
MICHIGAN CITY 6N           67 60  230/  6/  6   N/A           1
ST. JOSEPH                 64 58  210/  4/  6 1014.3F         0
$$

ILZ025>027-034>036-040-047-049-050-058-095>099-251600-
WEST-CENTRAL ILLINOIS

CITY           SKY/WX    TMP DP  RH WIND       PRES   REMARKS
QUINCY         MOSUNNY   80  67  64 SW10      29.93S HX  82
$$

ILZ028>032-037-038-041>044-048-051>054-059>061-251600-
CENTRAL ILLINOIS

CITY           SKY/WX    TMP DP  RH WIND       PRES   REMARKS
BLOOMINGTON    FAIR      83  62  49 S13       29.96F HX  84
DECATUR        FAIR      83  62  49 SW13      29.96F HX  84
PEORIA         FAIR      80  66  62 S6        29.94S HX  82
LINCOLN*       FAIR      85  65  51 SW6       29.94F HX  87
SPRINGFIELD    FAIR      85  66  53 S15G21    29.95F HX  87
TAYLORVILLE    NOT AVBL
$$

ILZ033-039-045-046-055>057-062-063-251600-
EAST-CENTRAL ILLINOIS

CITY           SKY/WX    TMP DP  RH WIND       PRES   REMARKS
CHAMPAIGN      FAIR      85  60  42 SW9       29.97F HX  85
DANVILLE*      FAIR      80  60  51 SW8       29.95F HX  81
MATTOON        FAIR      80  64  58 S7        29.97F HX  82
$$

ILZ079-100>102-251600-
SOUTHWEST ILLINOIS

CITY           SKY/WX    TMP DP  RH WIND       PRES   REMARKS
BELLEVILLE     CLOUDY    79  68  69 S8        29.95F HX  81
CAHOKIA*       CLOUDY    79  67  66 S3        29.95F HX  81
$$

ILZ064>066-069>071-074>076-080>082-084>086-088>090-092>094-251600-
SOUTH-CENTRAL ILLINOIS

CITY           SKY/WX    TMP DP  RH WIND       PRES   REMARKS
CARBONDALE     PTSUNNY   80  69  69 SW7       29.98S HX  83
MARION         MOSUNNY   79  68  69 S7        29.99S HX  81
MT. VERNON     FAIR      84  66  54 S8        29.98F HX  86
SALEM*         FAIR      84  63  49 S7        29.98S HX  85
$$

ILZ067-068-072-073-078-083-087-091-251600-
SOUTHEAST ILLINOIS

CITY           SKY/WX    TMP DP  RH WIND       PRES   REMARKS
LAWRENCEVILLE  FAIR      84  58  40 S10       29.99F HX  83
FLORA*         FAIR      82  64  53 SW8       29.99S HX  84
HARRISBURG*    FAIR      81  67  62 SW3       29.99S HX  83
ROBINSON*      FAIR      80  62  54 S7        29.99F HX  81
$$

ABBREVIATIONS USED IN REMARKS
   TC - TEMPERATURE IN CELSIUS
  WCI - WIND CHILL INDEX
   HX - HEAT INDEX
  VSB - VISIBILITY
$$





USA.gov is the U.S. government's official web portal to all federal, state and local government web resources and services.